Home   Weather   Nãgpur   Past weeks
Flag for India

Past Weather in Nãgpur, Maharashtra, India — Yesterday and Last 2 Weeks

Now
86 °F

Passing clouds.


Feels Like: 92 °F
Forecast: 94 / 79 °F
Wind: 3 mph from Northwest

Location: Nagpur Sonegaon

Current Time: Jul 16, 2019 at 4:17:42 am

Latest Report: Jul 16, 2019 at 3:30 am


Visibility: 3 mi

Pressure: 29.62 "Hg

Humidity: 62%

Dew Point: 72 °F

Location of NãgpurLocation

Past Weather in Nãgpur — Graph

°F

Nãgpur Temperature Yesterday

Maximum temperature yesterday: 97 °F (at 3:00 pm)
Minimum temperature yesterday: 79 °F (at 4:00 am)
Average temperature yesterday: 88 °F

High & Low Weather Summary for the Past Weeks

 TemperatureHumidityPressure
High97 °F (Jul 13, 2:30 pm)100% (Jul 1, 5:00 am)29.77 "Hg (Jul 1, 5:00 am)
Low72 °F (Jul 2, 3:00 am)42% (Jul 15, 3:30 pm)29.42 "Hg (Jul 5, 5:00 pm)
Average83 °F79%29.59 "Hg
* Reported Jul 1 2:30 am — Jul 16 3:00 am, Nãgpur. Weather by CustomWeather, © 2019

Note: Actual official high and low records may vary slightly from our data, if they occured in-between our weather recording intervals... More about our weather records

Advertising

Nãgpur Weather History for the Previous 24 Hours

Scroll right to see more
 ConditionsComfort  
Time TempWeatherWind HumidityBarometerVisibility
3:00 am
Tue, Jul 16
86 °FPassing clouds.3 mph62%29.62 "Hg3 mi
2:30 am86 °FPassing clouds.3 mph62%29.62 "Hg3 mi
2:00 am88 °FPassing clouds.3 mph59%29.62 "Hg3 mi
1:30 am88 °FPassing clouds.3 mph59%29.62 "Hg3 mi
1:00 am88 °FPassing clouds.5 mph59%29.65 "Hg3 mi
12:30 am88 °FPassing clouds.3 mph59%29.65 "Hg3 mi
12:00 am88 °FPassing clouds.3 mph59%29.65 "Hg3 mi
11:30 pm
Mon, Jul 15
88 °FPassing clouds.5 mph59%29.65 "Hg3 mi
11:00 pm88 °FPassing clouds.5 mph59%29.65 "Hg3 mi
10:30 pm90 °FHaze.6 mph55%29.65 "Hg3 mi
10:00 pm90 °FHaze.5 mph52%29.65 "Hg3 mi
9:30 pm90 °FHaze.5 mph52%29.62 "Hg3 mi
9:00 pm90 °FHaze.5 mph52%29.62 "Hg3 mi
8:30 pm90 °FHaze.6 mph52%29.62 "Hg3 mi
8:00 pm91 °FHaze.3 mph49%29.59 "Hg3 mi
7:30 pm91 °FHaze.5 mph49%29.59 "Hg3 mi
7:00 pm93 °FHaze.5 mph47%29.56 "Hg3 mi
6:30 pm95 °FScattered clouds.7 mph44%29.56 "Hg3 mi
6:00 pm95 °FScattered clouds.6 mph44%29.56 "Hg3 mi
5:00 pm97 °FScattered clouds.8 mph44%29.56 "Hg3 mi
4:30 pm97 °FScattered clouds.5 mph42%29.56 "Hg3 mi
4:00 pm97 °FScattered clouds.10 mph44%29.56 "Hg3 mi
3:30 pm97 °FScattered clouds.10 mph42%29.59 "Hg3 mi
3:00 pm97 °FScattered clouds.13 mph44%29.59 "Hg3 mi
2:30 pm95 °FScattered clouds.9 mph47%29.62 "Hg3 mi
2:00 pm95 °FScattered clouds.3 mph47%29.62 "Hg3 mi
1:30 pm95 °FScattered clouds.9 mph47%29.62 "Hg3 mi
12:00 pm91 °FScattered clouds.8 mph59%29.65 "Hg3 mi
11:30 am91 °FScattered clouds.9 mph59%29.68 "Hg3 mi
11:00 am90 °FScattered clouds.9 mph59%29.68 "Hg3 mi
10:30 am90 °FHaze.7 mph59%29.68 "Hg3 mi
9:30 am88 °FHaze.7 mph62%29.68 "Hg3 mi
9:00 am86 °FHaze.5 mph66%29.68 "Hg3 mi
8:30 am84 °FHaze.5 mph70%29.68 "Hg3 mi
8:00 am84 °FScattered clouds.5 mph70%29.65 "Hg2 mi
7:30 am82 °FScattered clouds.6 mph70%29.65 "Hg2 mi
7:00 am81 °FScattered clouds.7 mph79%29.65 "Hg2 mi
6:30 am79 °FScattered clouds.6 mph89%29.62 "Hg2 mi
6:00 am79 °FPassing clouds.2 mph89%29.62 "Hg2 mi
5:30 am79 °FPassing clouds.3 mph84%29.62 "Hg2 mi
5:00 am79 °FPassing clouds.5 mph84%29.62 "Hg2 mi
4:30 am79 °FPassing clouds.3 mph84%29.62 "Hg2 mi
4:00 am79 °FPassing clouds.5 mph84%29.62 "Hg2 mi
Weather by CustomWeather, © 2019

See weather overview

LIVE PARTIAL LUNAR ECLIPSE – Watch the eclipse as it happens